Flag Weather past 2 weeks in Anchorage, Alaska, U.S.A.

Now
23 °F

Overcast.


Feels Like: 14 °F
Forecast: 20 / 28 °F
Wind: 8 mph from Northeast

Location: Lake Hood Seaplane

Current Time: Nov 28, 2014 at 8:39:11 PM

Latest Report: Nov 28, 2014 at 7:53 PM


Visibility: 10 mi

Pressure: 30.18 "Hg

Humidity: 68%

Dew point: 14 °F

Location of AnchorageLocation

Historic Weather in Anchorage — Graph

°F

Anchorage temperature yesterday

Maximum temperature yesterday: 24 °F (at 12:53 PM)
Minimum temperature yesterday: 17 °F (at 8:53 PM)
Average temperature yesterday: 20 °F

Past Weeks' High & Low Weather Summary

 TemperatureHumidityPressure
High48 °F (Nov 18, 8:53 PM)97% (Nov 19, 12:53 PM)30.37 "Hg (Nov 19, 12:53 PM)
Low17 °F (Nov 27, 8:53 PM)48% (Nov 19, 1:53 AM)28.90 "Hg (Nov 21, 3:53 PM)
Average30 °F77%29.83 "Hg
* Reported Nov 13 6:53 PM — Nov 28 6:53 PM, Anchorage, Weather by CustomWeather, © 2014

Note: Actual official high and low records may vary slightly from our data, if they occured in-between our weather recording intervals... More about our weather records

Advertising

Anchorage weather history for previous 24 hours

 ConditionsComfort  
Time TempWeatherWind HumidityBarometerVisibility
6:53 PM
Nov 28
23 °FOvercast.8 mph65%30.18 "Hg10 mi
5:53 PM23 °FOvercast.8 mph68%30.18 "Hg10 mi
4:53 PM23 °FMostly cloudy.6 mph65%30.18 "Hg10 mi
3:53 PM23 °FOvercast.9 mph68%30.19 "Hg10 mi
2:53 PM23 °FOvercast.6 mph72%30.19 "Hg10 mi
1:53 PM23 °FOvercast.7 mph72%30.20 "Hg10 mi
12:53 PM23 °FOvercast.5 mph74%30.21 "Hg10 mi
11:53 AM23 °FMore clouds than sun.7 mph78%30.22 "Hg10 mi
10:53 AM22 °FOvercast.6 mph85%30.21 "Hg10 mi
9:53 AM22 °FMostly cloudy.5 mph85%30.21 "Hg10 mi
8:53 AM21 °FOvercast.5 mph85%30.20 "Hg10 mi
7:53 AM20 °FMostly cloudy.5 mph89%30.21 "Hg10 mi
6:53 AM21 °FLow clouds.6 mph85%30.20 "Hg10 mi
5:53 AM22 °FLow clouds.7 mph89%30.20 "Hg7 mi
4:53 AM22 °FIce fog.5 mph89%30.20 "Hg4 mi
3:53 AM21 °FPassing clouds.3 mph88%30.19 "Hg10 mi
2:53 AM22 °FLow clouds.No wind85%30.20 "Hg10 mi
1:53 AM21 °FLow clouds.No wind88%30.21 "Hg10 mi
12:53 AM20 °FOvercast.3 mph89%30.21 "Hg10 mi
11:53 PM
Nov 27
20 °FOvercast.No wind85%30.21 "Hg10 mi
10:53 PM18 °FOvercast.3 mph84%30.20 "Hg10 mi
9:53 PM18 °FOvercast.No wind84%30.20 "Hg7 mi
8:53 PM17 °FIce fog.No wind83%30.20 "Hg5 mi
Weather by CustomWeather, © 2014

See weather overviewHow to use our weather pages